OK9AIR-13 Weather Reports


Display with metric or nautical units.
time (UTC)temp
F
wind
direction
speed
MPH
gust
MPH
rain 1hr
in
rain 24hr
in
rain mn
in
humidity
%
barometer
mb
20260905231137 57 0.0 0.0 0.00 0.00 0.00 80 978.5
20260905231034 56 0.0 0.0 0.00 0.00 0.00 81 978.5
20260905220833 58 0.0 0.0 0.00 0.00 0.00 72 978.3
20260905210532 59 0.0 0.0 0.00 0.00 0.00 68 978.0
20260905210429 58 0.0 0.0 0.00 0.00 0.00 69 978.0
20260905200126 59 0.0 0.0 0.00 0.00 0.00 63 977.3
20260905195922 60 0.0 0.0 0.00 0.00 0.00 62 977.3
20260905195820 59 0.0 0.0 0.00 0.00 0.00 63 977.2
20260905194321 60 0.0 0.0 0.00 0.00 0.00 62 977.1
20260905194219 60 0.0 0.0 0.00 0.00 0.00 63 977.1
20260905192718 60 0.0 0.0 0.00 0.00 0.00 62 976.8
20260905192616 60 0.0 0.0 0.00 0.00 0.00 63 976.9
20260905191116 61 0.0 0.0 0.00 0.00 0.00 60 976.9
20260905191014 60 0.0 0.0 0.00 0.00 0.00 61 976.8
20260905185516 62 0.0 0.0 0.00 0.00 0.00 59 976.6
20260905185413 61 0.0 0.0 0.00 0.00 0.00 59 976.6
20260905183912 62 0.0 0.0 0.00 0.00 0.00 59 976.4
20260905183810 61 0.0 0.0 0.00 0.00 0.00 59 976.4
20260905182308 63 0.0 0.0 0.00 0.00 0.00 58 976.3
20260905182205 62 0.0 0.0 0.00 0.00 0.00 59 976.3
20260905180708 63 0.0 0.0 0.00 0.00 0.00 56 976.0
20260905180605 63 0.0 0.0 0.00 0.00 0.00 57 976.0
20260905175104 64 0.0 0.0 0.00 0.00 0.00 53 975.8
20260905175002 64 0.0 0.0 0.00 0.00 0.00 53 975.7
20260905173503 65 0.0 0.0 0.00 0.00 0.00 51 975.5
20260905173400 65 0.0 0.0 0.00 0.00 0.00 51 975.5
20260905171901 66 0.0 0.0 0.00 0.00 0.00 49 975.3
20260905171758 65 0.0 0.0 0.00 0.00 0.00 50 975.2
20260905170259 67 0.0 0.0 0.00 0.00 0.00 47 975.0
20260905170156 66 0.0 0.0 0.00 0.00 0.00 48 975.0
20260905164658 68 0.0 0.0 0.00 0.00 0.00 46 974.7
20260905164555 67 0.0 0.0 0.00 0.00 0.00 47 974.7
20260905163053 68 0.0 0.0 0.00 0.00 0.00 45 974.5
20260905161457 69 0.0 0.0 0.00 0.00 0.00 46 974.2
20260905161350 68 0.0 0.0 0.00 0.00 0.00 46 974.2
20260905155850 69 0.0 0.0 0.00 0.00 0.00 42 974.2
20260905155747 69 0.0 0.0 0.00 0.00 0.00 43 974.1
20260905154249 70 0.0 0.0 0.00 0.00 0.00 43 973.9
20260905154146 69 0.0 0.0 0.00 0.00 0.00 43 974.0
20260905152645 70 0.0 0.0 0.00 0.00 0.00 43 973.9
20260905151044 70 0.0 0.0 0.00 0.00 0.00 43 973.8
20260905150941 70 0.0 0.0 0.00 0.00 0.00 43 973.9
20260905145441 71 0.0 0.0 0.00 0.00 0.00 42 973.9
20260905145339 70 0.0 0.0 0.00 0.00 0.00 42 973.8
20260905143845 71 0.0 0.0 0.00 0.00 0.00 43 973.7
20260905143737 70 0.0 0.0 0.00 0.00 0.00 43 973.6
20260905142240 70 0.0 0.0 0.00 0.00 0.00 44 973.9
20260905142136 70 0.0 0.0 0.00 0.00 0.00 45 973.9
20260905140636 70 0.0 0.0 0.00 0.00 0.00 44 973.9
20260905140533 70 0.0 0.0 0.00 0.00 0.00 44 973.8
20260905135034 71 0.0 0.0 0.00 0.00 0.00 43 973.8
20260905134931 71 0.0 0.0 0.00 0.00 0.00 43 973.9
20260905133432 73 0.0 0.0 0.00 0.00 0.00 42 973.8
20260905133329 73 0.0 0.0 0.00 0.00 0.00 42 973.8
20260905131830 70 0.0 0.0 0.00 0.00 0.00 44 973.9
20260905131727 70 0.0 0.0 0.00 0.00 0.00 45 973.9
20260905130227 69 0.0 0.0 0.00 0.00 0.00 50 974.0
20260905130125 69 0.0 0.0 0.00 0.00 0.00 50 974.1
20260905124625 71 0.0 0.0 0.00 0.00 0.00 47 974.0
20260905124522 70 0.0 0.0 0.00 0.00 0.00 46 974.0
20260905123023 70 0.0 0.0 0.00 0.00 0.00 46 974.1
20260905122921 70 0.0 0.0 0.00 0.00 0.00 46 974.2
20260905121523 71 0.0 0.0 0.00 0.00 0.00 44 974.2
20260905121319 70 0.0 0.0 0.00 0.00 0.00 45 974.1
20260905115821 70 0.0 0.0 0.00 0.00 0.00 44 974.4
20260905115718 69 0.0 0.0 0.00 0.00 0.00 44 974.3
20260905114217 73 0.0 0.0 0.00 0.00 0.00 45 974.2
20260905114115 73 0.0 0.0 0.00 0.00 0.00 46 974.3
20260905112717 71 0.0 0.0 0.00 0.00 0.00 47 974.4
20260905112513 70 0.0 0.0 0.00 0.00 0.00 48 974.3
20260905111014 71 0.0 0.0 0.00 0.00 0.00 48 974.4
20260905110911 70 0.0 0.0 0.00 0.00 0.00 49 974.2
20260905105411 71 0.0 0.0 0.00 0.00 0.00 49 974.4
20260905105309 70 0.0 0.0 0.00 0.00 0.00 50 974.1
20260905103809 70 0.0 0.0 0.00 0.00 0.00 54 974.3
20260905103707 69 0.0 0.0 0.00 0.00 0.00 56 974.2
20260905102208 70 0.0 0.0 0.00 0.00 0.00 56 974.3
20260905102105 70 0.0 0.0 0.00 0.00 0.00 59 974.3
20260905100708 71 0.0 0.0 0.00 0.00 0.00 53 974.4
20260905100503 72 0.0 0.0 0.00 0.00 0.00 51 974.4
20260905095005 72 0.0 0.0 0.00 0.00 0.00 55 974.4
20260905094902 71 0.0 0.0 0.00 0.00 0.00 55 974.3
20260905093403 74 0.0 0.0 0.00 0.00 0.00 52 974.3
20260905093300 74 0.0 0.0 0.00 0.00 0.00 53 974.3
20260905091800 71 0.0 0.0 0.00 0.00 0.00 59 974.4
20260905091657 71 0.0 0.0 0.00 0.00 0.00 59 974.4
20260905090157 70 0.0 0.0 0.00 0.00 0.00 59 974.4
20260905090055 70 0.0 0.0 0.00 0.00 0.00 59 974.3
20260905084555 73 0.0 0.0 0.00 0.00 0.00 55 974.3
20260905084453 72 0.0 0.0 0.00 0.00 0.00 56 974.3
20260905082954 71 0.0 0.0 0.00 0.00 0.00 61 974.3
20260905082851 71 0.0 0.0 0.00 0.00 0.00 60 974.3
20260905081353 72 0.0 0.0 0.00 0.00 0.00 59 974.3
20260905081249 70 0.0 0.0 0.00 0.00 0.00 61 974.3
20260905075749 74 0.0 0.0 0.00 0.00 0.00 59 974.1
20260905075647 74 0.0 0.0 0.00 0.00 0.00 56 974.0
20260905074149 73 0.0 0.0 0.00 0.00 0.00 59 974.0
20260905074046 72 0.0 0.0 0.00 0.00 0.00 60 974.0
20260905072547 73 0.0 0.0 0.00 0.00 0.00 61 973.8
20260905072444 73 0.0 0.0 0.00 0.00 0.00 61 973.8
20260905070945 71 0.0 0.0 0.00 0.00 0.00 69 973.8
20260905070841 70 0.0 0.0 0.00 0.00 0.00 68 973.8
20260905065342 68 0.0 0.0 0.00 0.00 0.00 77 973.8
20260905065239 67 0.0 0.0 0.00 0.00 0.00 78 973.8
20260905063741 70 0.0 0.0 0.00 0.00 0.00 73 973.7
20260905063638 70 0.0 0.0 0.00 0.00 0.00 73 973.7
20260905062137 69 0.0 0.0 0.00 0.00 0.00 76 973.8
20260905062035 69 0.0 0.0 0.00 0.00 0.00 79 973.8
20260905060537 68 0.0 0.0 0.00 0.00 0.00 82 973.5
20260905060434 68 0.0 0.0 0.00 0.00 0.00 84 973.5
20260905054934 65 0.0 0.0 0.00 0.00 0.00 92 973.4
20260905054831 64 0.0 0.0 0.00 0.00 0.00 95 973.4
20260905053333 62 0.0 0.0 0.00 0.00 0.00 100 973.2
20260905053230 61 0.0 0.0 0.00 0.00 0.00 100 973.2
20260905051729 57 0.0 0.0 0.00 0.00 0.00 100 973.0
20260905051626 56 0.0 0.0 0.00 0.00 0.00 100 973.0
20260905050128 56 0.0 0.0 0.00 0.00 0.00 100 972.8
20260905050025 56 0.0 0.0 0.00 0.00 0.00 100 972.7
20260905042645 57 0.0 0.0 0.00 0.00 0.00 100 971.9
20260905042543 56 0.0 0.0 0.00 0.00 0.00 100 971.8
20260905032446 58 0.0 0.0 0.00 0.00 0.00 100 972.1
20260905032343 57 0.0 0.0 0.00 0.00 0.00 100 972.0
20260905022043 59 0.0 0.0 0.00 0.00 0.00 100 971.4
20260905021940 58 0.0 0.0 0.00 0.00 0.00 100 971.3
20260905011741 61 0.0 0.0 0.00 0.00 0.00 85 970.6
20260905011638 61 0.0 0.0 0.00 0.00 0.00 84 970.5
20260905001439 63 0.0 0.0 0.00 0.00 0.00 82 970.1
20260905001336 63 0.0 0.0 0.00 0.00 0.00 83 970.1